Location: Noordwijk
(52.2400°N, 4.4500°E)
Time: 06:48:45
(UTC+00:00)

CAS-4B - Pass Details

Date: 13 December 2022
Orbit: 515 x 531 km, 43.0° (Epoch: 28 January)

Event Time Altitude Azimuth Distance (km) Brightness Sun altitude
Exits shadow 04:54:52 22° 177° (S) 1,184 ? -24.3°
Drops below altitude 10° 04:57:48 10° 131° (SE) 1,774 ? -23.9°
Sets 05:00:23 0° 116° (ESE) 2,667 ? -23.5°
